#timestamp,LO_Frequency,Hit,StdDev 
1615986015.6,286047001.3,N
1615986035.5,286047004.4,N
1615986055.3,286047006.8,N
1615986075.1,286047014.0,Y
1615986095.9,286047018.6,P
1615986115.7,286047024.6,N
1615986135.6,286047031.1,N
1615986155.4,286047034.3,N
1615986175.2,286047031.5,N
1615986195.1,286047032.3,N
1615986196.0,286047032.3,N
1615986215.8,286047034.6,Y
1615986235.7,286047003.0,P
1615986255.5,286047001.0,N
1615986275.3,286046998.0,N
1615986295.2,286046993.9,N
1615986315.9,286046994.3,N
1615986335.7,286046993.2,N
1615986355.6,286046987.1,N
1615986375.4,286046982.7,N
1615986395.2,286046977.3,N
1615986415.1,286046980.4,N
1615986416.0,286046980.4,N
1615986435.8,286046976.3,N
1615986455.7,286046974.8,N
1615986475.5,286046976.0,N
1615986495.3,286046980.3,N
1615986515.2,286046980.6,N
1615986535.0,286046982.3,N
1615986535.9,286046982.3,N
1615986555.7,286046983.5,N
1615986575.6,286046983.5,N
1615986595.4,286046983.1,N
1615986615.3,286046986.3,N
1615986635.1,286046985.3,N
1615986636.0,286046985.3,N
1615986655.8,286046986.6,N
1615986675.7,286046986.3,N
1615986695.5,286046982.1,N
1615986715.3,286046989.6,N
1615986735.2,286046985.6,N
1615986755.0,286046983.3,N
1615986755.9,286046983.3,N
1615986775.8,286046979.6,Y
1615986795.6,286046998.2,P
1615986815.4,286047000.0,N
1615986835.3,286046998.7,N
1615986855.1,286046996.0,N
1615986875.9,286046994.8,N
1615986895.7,286046993.1,N
1615986915.5,286047001.4,N
1615986935.4,286047005.9,N
1615986955.2,286047006.1,N
1615986975.0,286047013.9,N
1615986975.9,286047013.9,N
1615986995.8,286047012.2,N
1615987015.6,286047014.0,N
1615987035.5,286047009.3,N
1615987055.3,286047013.2,N
1615987075.1,286047017.3,N
1615987095.9,286047023.5,N
1615987115.7,286047023.6,N
1615987135.5,286047019.1,N
1615987155.4,286047018.9,N
1615987175.2,286047021.7,N
1615987195.0,286047017.9,N
1615987196.0,286047017.9,N
1615987215.8,286047017.0,N
1615987235.6,286047022.8,N
1615987255.5,286047020.7,N
1615987275.3,286047016.0,N
1615987295.1,286047012.9,N
1615987315.9,286047008.1,N
1615987335.7,286047006.2,N
1615987355.5,286047008.5,N
1615987375.4,286047004.9,N
1615987395.2,286047005.9,N
1615987415.1,286047001.8,N
1615987416.0,286047001.8,N
1615987435.8,286047002.6,N
1615987455.6,286047001.2,N
1615987475.5,286046999.1,N
1615987495.3,286046996.1,N
1615987515.2,286046994.0,N
1615987535.9,286046997.8,N
1615987555.7,286046999.4,N
1615987575.6,286046995.8,N
1615987595.4,286046992.9,N
1615987615.3,286046992.9,N
1615987635.1,286046992.8,N
1615987636.0,286046992.8,N
1615987655.8,286046991.6,N
1615987675.7,286046986.5,N
1615987695.5,286046985.0,N
1615987715.3,286046986.1,N
1615987735.2,286046988.9,N
1615987755.0,286046996.6,N
1615987755.9,286046996.6,N
1615987775.8,286047004.8,N
1615987795.6,286047010.1,N
1615987815.4,286047010.8,N
1615987835.3,286047008.9,N
1615987855.1,286047004.6,N
1615987875.8,286047001.9,N
1615987895.7,286046998.6,N
1615987915.5,286047000.0,N
1615987935.4,286047001.1,N
1615987955.2,286046996.0,N
1615987975.0,286047011.9,N
1615987975.9,286046992.6,N
1615987995.8,286046991.6,N
1615988015.6,286046987.7,N
1615988035.4,286046986.1,N
1615988055.3,286046986.2,N
1615988075.1,286046984.6,N
1615988095.9,286046981.8,N
1615988115.7,286046983.5,N
1615988135.5,286046982.4,N
1615988155.4,286046983.1,N
1615988175.2,286046980.9,N
1615988195.0,286046981.8,N
1615988196.0,286046981.8,N
1615988215.8,286046981.1,N
1615988235.6,286046982.8,N
1615988255.5,286046981.1,N
1615988275.3,286046989.9,N
1615988295.1,286046986.9,N
1615988315.9,286046989.8,N
1615988335.7,286046995.6,N
1615988355.6,286046988.2,N
1615988375.4,286046991.1,N
1615988395.2,286046983.0,N
1615988415.1,286046976.3,N
1615988416.0,286046976.3,N
1615988435.8,286046973.9,Y
1615988455.6,286046979.1,P
1615988475.5,286046975.7,P
1615988495.3,286046976.6,P
1615988515.2,286046976.9,Y
1615988535.9,286046996.8,P
1615988555.7,286046995.9,N
1615988575.6,286046993.3,N
1615988595.4,286046996.0,N
1615988615.3,286046993.9,N
1615988635.1,286046998.4,N
1615988636.0,286046998.4,N
1615988655.8,286046996.0,N
1615988675.7,286046998.9,N
1615988695.5,286046990.4,N
1615988715.3,286046995.6,N
1615988735.2,286046993.2,N
1615988755.0,286046993.0,N
1615988755.9,286046993.0,N
1615988775.8,286046991.1,N
1615988795.6,286046993.1,N
1615988815.4,286046990.0,N
1615988835.3,286046985.5,Y
1615988855.1,286046989.2,P
1615988875.9,286046983.8,P
1615988895.7,286046987.9,N
1615988915.5,286046992.4,N
1615988935.4,286046998.2,N
1615988955.2,286047001.5,N
1615988975.0,286047001.8,N
1615988975.9,286047001.8,N
1615988995.8,286047003.5,N
1615989015.6,286047003.4,N
1615989035.5,286047008.6,N
1615989055.3,286047013.3,N
1615989075.1,286047014.7,N
1615989095.9,286047012.4,N
1615989115.7,286047017.2,N
1615989135.5,286047016.3,N
1615989155.4,286047021.2,N
1615989175.2,286047024.7,N
1615989195.1,286047026.2,N
1615989196.0,286047026.2,N
1615989215.8,286047027.0,N
1615989235.6,286047024.2,N
1615989255.5,286047017.9,N
1615989275.3,286047023.9,N
1615989295.1,286047019.8,N
1615989315.9,286047020.8,N
1615989335.7,286047026.5,N
1615989355.6,286047025.4,N
1615989375.4,286047024.5,N
1615989395.2,286047021.5,N
1615989415.1,286047017.3,N
1615989416.0,286047017.3,N
1615989435.8,286047021.3,N
1615989455.6,286047022.8,N
1615989475.5,286047019.5,N
1615989495.3,286047015.7,N
1615989515.2,286047019.7,N
1615989535.9,286047015.7,N
1615989555.7,286047013.0,N
1615989575.6,286047007.7,N
1615989595.4,286047005.3,N
